CW0566 Weather Reports


Display with metric or nautical units.
time (UTC)temp
F
wind
direction
speed
MPH
gust
MPH
rain 1hr
in
rain 24hr
in
rain mn
in
humidity
%
barometer
mb
20210412183153 48 22 5.0 11.0 0.00 0.45 0.10 82 1007.9
20210412182358 48 22 5.0 10.0 0.00 0.45 0.10 83 1007.9
20210412181029 48 337 5.0 12.0 0.00 0.45 0.10 83 1007.7
20210412175658 47 337 4.0 8.0 0.00 0.45 0.10 84 1007.8
20210412174026 47 0 4.0 10.0 0.00 0.45 0.10 85 1007.8
20210412173107 47 315 3.0 9.0 0.00 0.45 0.10 86 1007.6
20210412172442 47 292 5.0 11.0 0.00 0.45 0.10 85 1007.4
20210412171046 47 22 4.0 10.0 0.00 0.45 0.10 86 1007.3
20210412170244 47 292 4.0 8.0 0.00 0.45 0.10 86 1007.2
20210412165234 47 22 5.0 13.0 0.00 0.45 0.10 86 1007.1
20210412164032 47 22 6.0 12.0 0.00 0.45 0.10 86 1007.3
20210412163109 47 315 5.0 11.0 0.00 0.45 0.10 86 1007.1
20210412162334 47 292 5.0 10.0 0.00 0.45 0.10 86 1007.1
20210412161022 47 315 4.0 10.0 0.00 0.45 0.10 86 1007.2
20210412160123 47 22 7.0 13.0 0.00 0.45 0.10 86 1007.1
20210412155518 47 22 6.0 12.0 0.00 0.45 0.10 87 1007.2
20210412154038 47 22 5.0 9.0 0.00 0.46 0.10 86 1007.2
20210412153119 47 0 4.0 8.0 0.00 0.46 0.10 87 1007.2
20210412152353 47 337 4.0 10.0 0.00 0.46 0.10 87 1007.1
20210412151039 47 22 6.0 14.0 0.00 0.46 0.10 87 1006.9
20210412150151 47 22 6.0 13.0 0.00 0.46 0.10 88 1006.8
20210412145542 47 0 4.0 11.0 0.00 0.46 0.10 88 1006.4
20210412144033 47 22 8.0 15.0 0.00 0.46 0.10 87 1006.5
20210412143153 48 22 5.0 11.0 0.00 0.46 0.10 87 1006.3
20210412142332 48 22 6.0 12.0 0.00 0.46 0.10 88 1006.2
20210412141020 48 337 4.0 13.0 0.00 0.46 0.10 89 1006.0
20210412140142 48 22 8.0 17.0 0.00 0.46 0.10 89 1006.0
20210412135457 48 315 6.0 15.0 0.00 0.46 0.10 89 1006.0
20210412134023 48 22 6.0 14.0 0.00 0.46 0.10 91 1005.9
20210412133028 47 22 4.0 10.0 0.00 0.46 0.10 91 1006.0
20210412132132 47 337 5.0 12.0 0.00 0.46 0.10 92 1005.9
20210412131032 47 337 4.0 10.0 0.00 0.46 0.10 92 1005.8
20210412125902 47 0 4.0 9.0 0.00 0.46 0.10 92 1005.6
20210412124030 46 22 5.0 13.0 0.00 0.46 0.10 93 1005.6
20210412122630 46 315 5.0 12.0 0.00 0.48 0.10 93 1005.4
20210412121040 46 337 4.0 8.0 0.00 0.51 0.10 93 1005.2
20210412115848 46 337 3.0 7.0 0.00 0.54 0.10 93 1005.1
20210412114025 46 315 4.0 8.0 0.00 0.55 0.10 93 1004.9
20210412113029 46 315 2.0 5.0 0.00 0.56 0.10 93 1004.9
20210412112248 46 315 3.0 7.0 0.00 0.58 0.10 93 1004.9
20210412111023 46 22 5.0 9.0 0.00 0.59 0.10 93 1004.6
20210412110047 46 22 4.0 9.0 0.00 0.60 0.10 93 1004.4
20210412105443 46 315 3.0 6.0 0.00 0.60 0.10 93 1004.2
20210412104051 46 315 4.0 11.0 0.00 0.62 0.10 93 1004.1
20210412103044 46 315 3.0 6.0 0.00 0.64 0.10 93 1004.0
20210412102435 46 315 3.0 8.0 0.00 0.66 0.10 93 1004.0
20210412101019 46 315 3.0 9.0 0.00 0.68 0.10 93 1004.0
20210412100129 46 315 4.0 10.0 0.00 0.69 0.10 93 1004.0
20210412095328 46 315 2.0 8.0 0.00 0.70 0.10 93 1003.6
20210412094030 46 315 5.0 9.0 0.00 0.70 0.10 93 1003.4
20210412093034 47 315 3.0 6.0 0.00 0.70 0.10 93 1003.3
20210412092246 47 315 3.0 6.0 0.00 0.71 0.10 93 1003.3
20210412091111 47 315 2.0 6.0 0.00 0.71 0.10 93 1003.3
20210412090136 47 315 3.0 6.0 0.00 0.75 0.10 93 1003.1
20210412085253 47 315 4.0 8.0 0.00 0.81 0.10 93 1003.1
20210412084045 47 315 4.0 9.0 0.01 0.92 0.10 93 1002.9
20210412083032 47 292 4.0 9.0 0.01 1.12 0.10 93 1002.7
20210412082421 47 292 4.0 11.0 0.01 1.16 0.10 93 1002.4
20210412081021 47 315 5.0 12.0 0.01 1.17 0.10 93 1002.2
20210412080024 47 292 4.0 8.0 0.01 1.17 0.10 94 1002.0
20210412075139 47 337 4.0 8.0 0.01 1.17 0.10 93 1002.0
20210412074031 48 315 3.0 8.0 0.00 1.16 0.09 93 1002.3
20210412073047 48 315 5.0 13.0 0.01 1.16 0.09 93 1002.3
20210412072528 48 315 5.0 12.0 0.03 1.16 0.09 94 1002.3
20210412071036 48 315 3.0 10.0 0.03 1.16 0.09 94 1002.4
20210412070031 48 315 3.0 9.0 0.03 1.16 0.09 94 1002.3
20210412065246 48 315 3.0 6.0 0.03 1.16 0.09 94 1002.5
20210412064026 48 315 3.0 9.0 0.03 1.16 0.09 94 1002.5
20210412062455 48 315 2.0 5.0 0.00 1.13 0.06 94 1002.7
20210412061044 48 292 2.0 4.0 0.00 1.13 0.06 94 1002.7
20210412060044 48 247 1.0 4.0 0.01 1.13 0.06 94 1002.7
20210412055156 48 292 2.0 4.0 0.02 1.13 0.06 94 1002.5
20210412054037 49 315 3.0 5.0 0.02 1.13 0.06 94 1001.8
20210412052424 49 337 3.0 8.0 0.02 1.13 0.06 94 1001.8
20210412051021 49 315 4.0 10.0 0.02 1.13 0.06 94 1001.5
20210412050519 49 22 6.0 13.0 0.04 1.12 0.05 94 1001.7
20210412045417 49 0 5.0 11.0 0.04 1.11 0.04 94 1001.5
20210412044036 49 22 5.0 10.0 0.08 1.11 0.04 94 1001.8
20210412043209 49 0 2.0 5.0 0.15 1.11 0.04 94 1002.5
20210412042317 49 292 2.0 4.0 0.23 1.11 0.04 94 1002.4
20210412041031 49 270 1.0 3.0 0.31 1.11 0.04 94 1002.6
20210412040026 49 157 4.0 8.0 0.29 1.08 0.01 94 1003.3
20210412035156 49 180 4.0 11.0 0.28 1.07 1.07 94 1001.8
20210412034027 49 180 3.0 8.0 0.29 1.03 1.03 94 1002.2
20210412033039 49 315 3.0 8.0 0.24 0.96 0.96 94 1001.3
20210412032128 50 22 5.0 11.0 0.16 0.88 0.88 94 1001.2
20210412031032 50 0 3.0 8.0 0.08 0.80 0.80 94 1001.2
20210412030023 50 0 2.0 5.0 0.07 0.79 0.79 94 1001.4
20210412025248 50 22 6.0 12.0 0.07 0.79 0.79 94 1001.0
20210412024026 50 337 6.0 15.0 0.02 0.74 0.74 93 1001.2
20210412023103 50 22 5.0 11.0 0.00 0.72 0.72 93 1001.4
20210412022321 50 22 6.0 14.0 0.00 0.72 0.72 93 1001.4
20210412021034 50 22 6.0 13.0 0.00 0.72 0.72 93 1000.8
20210412020031 51 22 7.0 13.0 0.00 0.72 0.72 93 1000.8
20210412015141 51 22 6.0 13.0 0.00 0.72 0.72 93 1000.7
20210412014022 51 315 6.0 13.0 0.00 0.72 0.72 93 1000.9
20210412013224 51 0 5.0 12.0 0.00 0.72 0.72 93 1001.0
20210412012330 52 0 9.0 17.0 0.00 0.72 0.72 93 1000.5
20210412011100 52 315 7.0 14.0 0.00 0.72 0.72 93 1000.6
20210412010034 53 0 5.0 15.0 0.00 0.72 0.72 93 1000.6
20210412005839 53 0 4.0 10.0 0.00 0.72 0.72 93 1000.4
20210412004027 54 22 7.0 15.0 0.00 0.72 0.72 92 1000.2
20210412002742 56 0 7.0 15.0 0.00 0.72 0.72 92 999.7
20210412001049 57 0 7.0 15.0 0.00 0.72 0.72 92 999.5
20210412000036 57 0 8.0 18.0 0.00 0.72 0.72 91 999.3
20210411235325 59 337 8.0 14.0 0.00 0.72 0.72 91 999.2
20210411234028 60 337 8.0 16.0 0.00 0.72 0.72 90 998.9
20210411233141 63 337 7.0 15.0 0.00 0.72 0.72 88 998.6
20210411232624 65 337 7.0 14.0 0.00 0.72 0.72 87 998.1
20210411231038 66 337 5.0 10.0 0.00 0.72 0.72 86 998.0
20210411230055 67 337 4.0 9.0 0.00 0.72 0.72 85 998.2
20210411225158 67 337 3.0 9.0 0.00 0.72 0.72 84 998.1
20210411224034 67 337 4.0 9.0 0.00 0.72 0.72 83 997.8
20210411223249 68 337 5.0 9.0 0.00 0.72 0.72 83 997.7
20210411222445 68 0 4.0 9.0 0.00 0.72 0.72 83 997.8
20210411221031 68 337 4.0 10.0 0.00 0.72 0.72 83 997.8
20210411220322 69 337 4.0 8.0 0.00 0.72 0.72 83 997.8
20210411215348 68 337 4.0 9.0 0.00 0.72 0.72 83 997.9
20210411214026 69 22 3.0 6.0 0.00 0.72 0.72 82 998.0
20210411213210 69 0 3.0 9.0 0.00 0.72 0.72 81 998.0
20210411212150 68 22 2.0 7.0 0.00 0.72 0.72 83 997.9
20210411211024 69 0 4.0 7.0 0.00 0.72 0.72 81 997.7
20210411210030 69 0 3.0 6.0 0.00 0.72 0.72 81 997.6
20210411205343 70 337 4.0 6.0 0.00 0.72 0.72 81 997.4
20210411204027 69 337 3.0 9.0 0.00 0.72 0.72 83 997.2
20210411203344 68 337 2.0 5.0 0.00 0.72 0.72 84 997.2
20210411202531 68 337 3.0 6.0 0.00 0.72 0.72 84 997.1
20210411201035 69 0 3.0 6.0 0.00 0.72 0.72 84 997.0
20210411200052 68 337 2.0 5.0 0.00 0.72 0.72 84 997.2
20210411195335 67 0 3.0 5.0 0.00 0.72 0.72 86 997.4
20210411194026 67 22 2.0 5.0 0.00 0.72 0.72 87 997.8
20210411193141 67 0 3.0 7.0 0.00 0.72 0.72 87 998.0
20210411192608 66 22 2.0 6.0 0.00 0.72 0.72 87 997.9
20210411191034 67 0 2.0 7.0 0.00 0.72 0.72 86 997.9
20210411190157 67 90 1.0 3.0 0.00 0.72 0.72 89 998.0
20210411185336 65 337 2.0 5.0 0.00 0.72 0.72 88 997.8
20210411184028 66 337 2.0 5.0 0.00 0.72 0.72 88 997.7